[[[{"header":{"parameterUnit":"kt","parameterCategory":2,"dx":1,"dy":1,"la1":30.253999710083008,"la2":30.299108505249023,"lo1":-89.0895004272461,"lo2":-89.04439544677734,"nx":28,"ny":28,"refTime":"2022-10-26T21:00:00:Z","depth":0,"parameterNumber":1,"parameterNumberName":"U-component_of_WINDS"},"data":[-0.306,-0.3019,-0.2973,-0.2905,-0.2852,-0.2798,-0.2763,-0.2714,-0.2663,-0.2593,-0.2545,-0.2493,-0.2423,-0.2355,-0.23,-0.2278,-0.2259,-0.228,-0.2251,-0.2199,-0.2188,-0.2179,-0.2186,-0.2276,-0.2277,-0.2313,-0.2314,-0.2314,-0.3031,-0.2977,-0.2927,-0.2847,-0.2804,-0.2756,-0.2688,-0.2655,-0.2608,-0.2544,-0.2492,-0.2427,-0.2369,-0.2289,-0.2226,-0.2207,-0.218,-0.2193,-0.2195,-0.2185,-0.2126,-0.2134,-0.2216,-0.2216,-0.2216,-0.2216,-0.2215,-0.2215,-0.2965,-0.2942,-0.2865,-0.281,-0.2756,-0.2702,-0.2672,-0.2608,-0.2558,-0.2485,-0.2437,-0.2382,-0.2308,-0.2206,-0.216,-0.2117,-0.2094,-0.2093,-0.2093,-0.2094,-0.2104,-0.2062,-0.2103,-0.2103,-0.2102,-0.2102,-0.2101,0,-0.2902,-0.2864,-0.2812,-0.2746,-0.2702,-0.2646,-0.2586,-0.2566,-0.2467,-0.243,-0.2372,-0.233,-0.2248,-0.2188,-0.2116,-0.2067,-0.2013,-0.2001,-0.2,-0.2024,-0.2057,-0.2042,-0.1952,-0.2,-0.1999,-0.1998,-0.1997,-0.1997,-0.2835,-0.2812,-0.2707,-0.2677,-0.2632,-0.2584,-0.2545,-0.2459,-0.2422,-0.2335,-0.2319,-0.2257,-0.2202,-0.2117,-0.2041,-0.1979,-0.1952,-0.1977,-0.1942,-0.1967,-0.1955,-0.1959,-0.1957,-0.1986,-0.1987,-0.1988,-0.1989,0,-0.2802,-0.2722,-0.2671,-0.2568,-0.2542,-0.2523,-0.2435,-0.2407,-0.2346,-0.23,-0.2285,-0.219,-0.2133,-0.2052,-0.1971,-0.193,-0.1901,-0.1875,-0.1927,-0.1918,-0.1934,-0.1935,-0.1992,-0.1996,-0.1899,-0.19,-0.19,0,-0.2714,-0.2687,-0.2569,-0.2544,-0.2511,-0.2424,-0.2395,-0.2339,-0.2272,-0.2235,-0.2159,-0.2126,-0.2026,-0.1981,-0.1921,-0.1882,-0.1866,-0.1833,-0.1818,-0.1841,-0.1846,-0.1821,-0.1818,-0.178,-0.178,-0.178,-0.178,0,-0.2672,-0.2575,-0.2533,-0.2498,-0.2384,-0.2367,-0.2319,-0.2242,-0.2204,-0.2142,-0.2116,-0.205,-0.2014,-0.1964,-0.1888,-0.1868,-0.1837,-0.1794,-0.1804,-0.1806,-0.1802,-0.1804,-0.1874,-0.178,-0.178,-0.1779,-0.1779,0,-0.2588,-0.2526,-0.2476,-0.238,-0.2358,-0.2329,-0.2258,-0.2214,-0.2139,-0.2098,-0.2048,-0.1988,-0.1944,-0.1908,-0.1847,-0.1844,-0.1813,-0.1777,-0.1776,-0.1768,-0.1731,-0.1784,-0.1857,-0.1863,-0.1761,-0.1761,-0.1761,0,-0.2564,-0.249,-0.2414,-0.2368,-0.2322,-0.224,-0.2207,-0.2141,-0.2084,-0.2038,-0.1975,-0.1922,-0.1877,-0.1849,-0.183,-0.1763,-0.1768,-0.1759,-0.1696,-0.1695,-0.1722,-0.1788,-0.182,-0.185,-0.1757,-0.1758,-0.1758,0,-0.2535,-0.2395,-0.2391,-0.2348,-0.2246,-0.2207,-0.2168,-0.2096,-0.2069,-0.2002,-0.1968,-0.189,-0.1854,-0.1808,-0.1751,-0.1735,-0.1762,-0.1698,-0.1694,-0.1714,-0.1748,-0.1779,-0.1785,-0.1727,-0.1727,-0.1728,-0.1755,0,-0.2431,-0.2382,-0.2369,-0.2274,-0.223,-0.2195,-0.2106,-0.2072,-0.2022,-0.1962,-0.1909,-0.1831,-0.1757,-0.1739,-0.1689,-0.1678,-0.1667,-0.1628,-0.1587,-0.1631,-0.1638,-0.164,-0.1585,-0.1583,-0.1581,-0.158,0,0,-0.2429,-0.2357,-0.2272,-0.2231,-0.2189,-0.2102,-0.2073,-0.2021,-0.192,-0.1893,-0.1869,-0.1749,-0.1686,-0.1631,-0.1637,-0.1606,-0.1597,-0.1584,-0.161,-0.1614,-0.1617,-0.1626,-0.1631,-0.1577,-0.1577,-0.1576,-0.1576,0,-0.2373,-0.231,-0.2281,-0.2224,-0.2137,-0.2074,-0.2067,-0.1965,-0.1925,-0.187,-0.18,-0.1757,-0.1661,-0.1605,-0.1564,-0.1589,-0.1538,-0.1572,-0.1616,-0.1598,-0.1604,-0.1609,-0.162,-0.1625,-0.1572,-0.1573,-0.1573,0,-0.233,-0.2254,-0.223,-0.2128,-0.207,-0.2024,-0.1959,-0.1912,-0.1878,-0.1784,-0.1731,-0.1676,-0.1592,-0.1551,-0.1528,-0.1506,-0.149,-0.1477,-0.1484,-0.148,-0.1458,-0.1465,-0.1472,-0.139,-0.139,-0.139,0,0,-0.2293,-0.2246,-0.2137,-0.2109,-0.2077,-0.1983,-0.1948,-0.1894,-0.182,-0.1791,-0.1718,-0.1649,-0.1593,-0.1558,-0.1499,-0.1465,-0.1442,-0.1459,-0.1467,-0.1474,-0.1475,-0.1455,-0.1462,-0.1389,-0.1389,-0.1389,0,0,-0.2275,-0.2148,-0.2109,-0.2066,-0.1999,-0.1888,-0.1875,-0.1825,-0.1763,-0.1758,-0.1662,-0.1639,-0.1598,-0.1546,-0.1543,-0.1484,-0.1445,-0.1443,-0.1519,-0.1529,-0.1537,-0.1551,-0.1466,0,0,0,0,0,-0.2172,-0.2164,-0.213,-0.2109,-0.1979,-0.1908,-0.189,-0.1811,-0.1786,-0.1778,-0.1709,-0.1656,-0.1525,-0.1521,-0.1502,-0.1505,-0.1376,-0.1379,-0.1381,-0.147,-0.1481,-0.149,0,0,0,0,0,0,-0.2163,-0.2138,-0.213,-0.2021,-0.1991,-0.1907,-0.1847,-0.1826,-0.1785,-0.1776,-0.1671,-0.1652,-0.1584,-0.1525,-0.1509,-0.1514,-0.1471,-0.1377,-0.1379,-0.1381,-0.1474,-0.1483,-0.1491,0,0,0,0,0,-0.2155,-0.2135,-0.1947,-0.202,-0.1994,-0.1888,-0.1847,-0.1828,-0.1796,-0.1688,-0.1668,-0.174,-0.1586,-0.1567,-0.1515,-0.1524,-0.1482,-0.1476,-0.1379,-0.138,-0.1381,-0.1478,0,0,0,0,0,0,-0.215,-0.2117,-0.1939,-0.1929,-0.2017,-0.1891,-0.1868,-0.1831,-0.1709,-0.1689,-0.1753,-0.1747,-0.1587,-0.1572,-0.1558,-0.1532,-0.149,-0.1485,-0.1481,-0.138,-0.1381,-0.1382,0,0,0,0,0,0,-0.2128,-0.2109,-0.1934,-0.1934,-0.1922,-0.1894,-0.1874,-0.1818,-0.1708,-0.178,-0.1771,-0.1752,-0.1609,-0.1576,-0.1565,-0.148,-0.1497,-0.1491,-0.1488,-0.1485,-0.1381,-0.1382,0,0,0,0,0,0,-0.2118,-0.2102,-0.1936,-0.1928,-0.1917,-0.1789,-0.1843,-0.1714,-0.1709,-0.1787,-0.1707,-0.1706,-0.1614,-0.1601,-0.157,-0.1491,-0.1483,-0.1497,-0.1493,-0.149,-0.1489,0,0,0,0,0,0,0,-0.2111,-0.2239,-0.2004,-0.1922,-0.1913,-0.1828,-0.1825,-0.1822,-0.1709,-0.1708,-0.1707,-0.1706,-0.1529,-0.1523,-0.1516,-0.1499,0,0,-0.1497,-0.1495,0,0,0,0,0,0,0,0,-0.2244,-0.224,-0.2004,-0.2002,-0.2,-0.1827,-0.1825,-0.1823,-0.1709,-0.1708,-0.1707,-0.1706,-0.1527,-0.1522,-0.1517,0,0,0,0,0,0,0,0,0,0,0,0,0,0,0,-0.2004,-0.2002,0,-0.1827,-0.1825,-0.1823,-0.1709,-0.1708,-0.1707,-0.1707,-0.1526,-0.1522,-0.1518,0,0,0,0,0,0,0,0,0,0,0,0,0,0,0,0,0,0,0,0,0,0,0,0,0,0,0,0,0,0,0,0,0,0,0,0,0,0,0,0,0,0,0,0,0,0,0,0,0,0,0,0,0,0,0,0,0,0,0,0,0,0,0,0,0,0,0,0,0]}],[{"header":{"parameterUnit":"kt","parameterCategory":2,"dx":1,"dy":1,"la1":30.253999710083008,"la2":30.299108505249023,"lo1":-89.0895004272461,"lo2":-89.04439544677734,"nx":28,"ny":28,"refTime":"2022-10-26T21:00:00:Z","depth":0,"parameterNumber":2,"parameterNumberName":"V-component_of_WINDS"},"data":[0.7989,0.7951,0.7935,0.7883,0.786,0.782,0.7801,0.7774,0.7748,0.7697,0.7665,0.7644,0.761,0.7565,0.7528,0.7519,0.7502,0.7499,0.7488,0.7522,0.7525,0.7528,0.7537,0.7496,0.7496,0.7455,0.7454,0.7454,0.8009,0.7986,0.7955,0.7915,0.7887,0.7881,0.7847,0.7823,0.7788,0.7757,0.7725,0.7678,0.7639,0.7607,0.7565,0.7543,0.7537,0.7533,0.7533,0.7527,0.7563,0.7572,0.7538,0.7538,0.7538,0.7538,0.7538,0.7538,0.804,0.8018,0.7985,0.7952,0.7927,0.79,0.7875,0.7852,0.782,0.7778,0.7766,0.7725,0.769,0.7634,0.7611,0.7576,0.7578,0.7568,0.7565,0.7562,0.756,0.7615,0.7569,0.7569,0.7569,0.7569,0.7569,0,0.8057,0.8046,0.8017,0.7982,0.7957,0.7929,0.79,0.7885,0.7856,0.7831,0.7793,0.7769,0.7719,0.768,0.7639,0.7617,0.7606,0.7605,0.7597,0.76,0.7608,0.76,0.7656,0.7606,0.7606,0.7606,0.7606,0.7606,0.8085,0.8063,0.8024,0.8004,0.7986,0.7956,0.7934,0.7912,0.789,0.785,0.7831,0.7793,0.7761,0.7702,0.7673,0.7635,0.763,0.7611,0.7624,0.7628,0.7625,0.7626,0.7621,0.7609,0.7609,0.7608,0.7608,0,0.8101,0.808,0.8041,0.8004,0.7994,0.7971,0.7938,0.7915,0.7896,0.7861,0.7852,0.7821,0.7783,0.7758,0.7711,0.7698,0.7653,0.765,0.7664,0.7661,0.764,0.7641,0.7582,0.7572,0.7617,0.7617,0.7616,0,0.8116,0.8088,0.8056,0.8035,0.8002,0.7982,0.7949,0.793,0.7902,0.7874,0.7861,0.7835,0.7808,0.7777,0.7759,0.7718,0.7711,0.7697,0.7692,0.7697,0.7699,0.7683,0.7684,0.7687,0.7687,0.7688,0.7688,0,0.8143,0.8095,0.8061,0.8046,0.8005,0.7989,0.7971,0.794,0.792,0.789,0.7875,0.7841,0.7822,0.7794,0.7771,0.778,0.7723,0.773,0.7709,0.7709,0.7696,0.7697,0.7653,0.7688,0.7688,0.7688,0.7688,0,0.8151,0.8124,0.8079,0.8044,0.8032,0.801,0.7976,0.7951,0.792,0.7908,0.7884,0.7872,0.7838,0.7846,0.7797,0.7815,0.7795,0.7781,0.7779,0.7772,0.7782,0.7757,0.772,0.7714,0.7768,0.7768,0.7769,0,0.8186,0.8136,0.8119,0.8077,0.8051,0.8038,0.8012,0.7986,0.7968,0.7942,0.7921,0.7891,0.7893,0.788,0.7859,0.7836,0.7814,0.7839,0.7795,0.7794,0.7801,0.7767,0.7767,0.7732,0.7777,0.7776,0.7776,0,0.8211,0.8164,0.8159,0.814,0.8106,0.8084,0.8056,0.8023,0.8005,0.7979,0.7953,0.7912,0.791,0.7889,0.7877,0.7856,0.7828,0.7857,0.7856,0.785,0.7781,0.778,0.7774,0.7823,0.7822,0.7822,0.7782,0,0.8223,0.8197,0.8181,0.8146,0.8126,0.81,0.8077,0.8059,0.8049,0.8032,0.7994,0.7968,0.7933,0.7922,0.7913,0.7875,0.7877,0.7877,0.7882,0.7861,0.7847,0.7842,0.7904,0.7904,0.7904,0.7904,0,0,0.8261,0.8224,0.8208,0.8182,0.8164,0.8152,0.8126,0.8107,0.807,0.8056,0.806,0.7998,0.7976,0.7932,0.7925,0.7912,0.7901,0.7911,0.7872,0.7869,0.7865,0.7851,0.7846,0.7904,0.7904,0.7904,0.7904,0,0.8261,0.8244,0.822,0.82,0.8171,0.8155,0.8149,0.8117,0.8105,0.8071,0.806,0.8035,0.7988,0.7965,0.7947,0.7916,0.7908,0.7907,0.7897,0.7873,0.787,0.7867,0.7852,0.7847,0.7904,0.7904,0.7904,0,0.828,0.8258,0.8245,0.8208,0.8188,0.8163,0.8163,0.8138,0.8117,0.8105,0.8071,0.8053,0.8022,0.7986,0.7969,0.7971,0.7915,0.793,0.7929,0.7926,0.7902,0.7898,0.7894,0.7942,0.7942,0.7942,0,0,0.8283,0.826,0.8231,0.8206,0.8195,0.8171,0.8156,0.8146,0.812,0.811,0.8087,0.8061,0.8033,0.8015,0.7988,0.7951,0.7941,0.7936,0.7934,0.7933,0.7929,0.7904,0.79,0.7943,0.7943,0.7943,0,0,0.8284,0.8249,0.8245,0.8215,0.8191,0.8159,0.8144,0.8138,0.8112,0.8112,0.8091,0.8084,0.8049,0.8033,0.8047,0.7988,0.7995,0.7991,0.8001,0.7998,0.7996,0.8,0.8043,0,0,0,0,0,0.8274,0.8254,0.825,0.8242,0.8195,0.8162,0.8155,0.8139,0.8143,0.8131,0.8111,0.8105,0.8036,0.8048,0.8039,0.8023,0.7954,0.7952,0.7951,0.7955,0.7952,0.795,0,0,0,0,0,0,0.8271,0.8261,0.8251,0.8219,0.8208,0.8162,0.8165,0.816,0.8144,0.8143,0.8109,0.8104,0.8089,0.8051,0.8043,0.8028,0.8045,0.7954,0.7952,0.795,0.7954,0.7952,0.795,0,0,0,0,0,0.8268,0.826,0.819,0.8219,0.821,0.8183,0.8166,0.8162,0.8149,0.8119,0.8113,0.8138,0.8089,0.8081,0.8046,0.8032,0.8051,0.8048,0.7952,0.7951,0.795,0.7953,0,0,0,0,0,0,0.8266,0.8255,0.8187,0.8184,0.8226,0.8185,0.8178,0.8163,0.8125,0.8119,0.8146,0.8146,0.8088,0.8082,0.8077,0.8035,0.8055,0.8052,0.805,0.7951,0.795,0.795,0,0,0,0,0,0,0.8259,0.8252,0.8185,0.8196,0.8193,0.8187,0.8181,0.815,0.8124,0.8154,0.8153,0.8147,0.8097,0.8083,0.8079,0.803,0.8058,0.8056,0.8054,0.8052,0.7951,0.795,0,0,0,0,0,0,0.8256,0.825,0.8196,0.8194,0.8192,0.8151,0.8159,0.8111,0.8135,0.8156,0.8136,0.8137,0.8098,0.8093,0.808,0.8034,0.8031,0.8058,0.8056,0.8055,0.8054,0,0,0,0,0,0,0,0.8253,0.8298,0.8209,0.8193,0.8191,0.8151,0.815,0.8149,0.8135,0.8136,0.8136,0.8137,0.8074,0.8071,0.8068,0.8037,0,0,0.8058,0.8057,0,0,0,0,0,0,0,0,0.83,0.8299,0.8208,0.8208,0.8207,0.8151,0.815,0.8149,0.8135,0.8136,0.8136,0.8136,0.8073,0.8071,0.8068,0,0,0,0,0,0,0,0,0,0,0,0,0,0,0,0.8208,0.8208,0,0.8151,0.815,0.8149,0.8135,0.8136,0.8136,0.8136,0.8072,0.807,0.8068,0,0,0,0,0,0,0,0,0,0,0,0,0,0,0,0,0,0,0,0,0,0,0,0,0,0,0,0,0,0,0,0,0,0,0,0,0,0,0,0,0,0,0,0,0,0,0,0,0,0,0,0,0,0,0,0,0,0,0,0,0,0,0,0,0,0,0,0,0]}]]]